Regional Weather Roundup
Issued by NWS

Home | Current Version | Previous Version | Text Only | Print | Product List | Glossary On
Versions: 1 2 3 4 5 6 7 8 9 10 11 12 13 14 15 16 17 18 19 20 21 22 23 24 25 26 27 28 29 30 31 32 33 34 35 36 37 38 39 40 41 42 43 44 45 46 47 48 49 50
820
ASUS43 KTOP 260608
RWRKS

WEATHER ROUNDUP FOR KANSAS
NATIONAL WEATHER SERVICE GOODLAND KS
100 AM CDT THU MAY 26 2016

NOTE:  "FAIR" INDICATES FEW OR NO CLOUDS BELOW 12,000 FEET WITH NO
SIGNIFICANT WEATHER AND/OR OBSTRUCTIONS TO VISIBILITY.

KSZ001>006-013>018-027>032-041>047-260700-
NORTHWEST KANSAS

CITY           SKY/WX    TMP DP  RH WIND       PRES   REMARKS
GOODLAND       CLEAR     51  47  86 E8        29.93R
6HR MIN TEMP:  51; 6HR MAX TEMP:  79;

HAYS           CLEAR     54  48  82 NE12      29.91S
HILL CITY      CLEAR     56  51  84 E8        29.88F
6HR MIN TEMP:  56; 6HR MAX TEMP:  76;

RUSSELL        PTCLDY    64  58  80 N15       29.89S
6HR MIN TEMP:  64; 6HR MAX TEMP:  79;

$$

KSZ061>065-074>080-084>089-260700-
SOUTHWEST KANSAS

CITY           SKY/WX    TMP DP  RH WIND       PRES   REMARKS
DODGE CITY     CLEAR     65  62  90 E12       29.85S
6HR MIN TEMP:  63; 6HR MAX TEMP:  80;

ELKHART          N/A     68  35  29 SW8         N/A
GARDEN CITY    CLEAR     64  59  83 E13       29.84F
6HR MIN TEMP:  63; 6HR MAX TEMP:  86;

GREAT BEND     MOCLDY    70  63  78 E7        29.90R
LIBERAL        CLEAR     57  45  62 S7        29.83F
PRATT          CLEAR     68  65  88 S8        29.85S
6HR MIN TEMP:  67; 6HR MAX TEMP:  83;

$$

KSZ066>073-081>083-090>101-260700-
SOUTHEAST KANSAS

CITY           SKY/WX    TMP DP  RH WIND       PRES   REMARKS
CHANUTE        CLOUDY    77  72  84 S14       29.88S
6HR MIN TEMP:  77; 6HR MAX TEMP:  81;

COFFEYVILLE    CLOUDY    77  73  87 S12       29.87F
6HR MIN TEMP:  77; 6HR MAX TEMP:  83;

HUTCHINSON     CLEAR     73  70  90 SW3       29.85R
6HR MIN TEMP:  69; 6HR MAX TEMP:  88;

MEDICINE LODGE   N/A     73  60  63 S10       29.83S
NEWTON         PTCLDY    73  68  83 S8        29.88R
PARSONS        CLOUDY    77  73  87 VRB6      29.89F
6HR MIN TEMP:  77; 6HR MAX TEMP:  83;

WICHITA INTL   PTCLDY    76  72  87 S9        29.84R
6HR MIN TEMP:  76; 6HR MAX TEMP:  87;

WICHITA JABRA  CLEAR     75  73  93 S12       29.85R
6HR MIN TEMP:  75; 6HR MAX TEMP:  85;

WICHITA MCCONL CLEAR     75  73  92 SW14      29.85R
WINFIELD       CLOUDY    76  72  87 S16G26    29.85F
6HR MIN TEMP:  76; 6HR MAX TEMP:  83;

$$

KSZ007>012-019>026-033>040-048>060-102>105-260700-
NORTHEAST KANSAS

CITY           SKY/WX    TMP DP  RH WIND       PRES   REMARKS
CONCORDIA      MOCLDY    67  57  70 N21       29.90R
6HR MIN TEMP:  67; 6HR MAX TEMP:  78;

EMPORIA        CLOUDY    74  70  87 NE5       29.86R
6HR MIN TEMP:  74; 6HR MAX TEMP:  81;

LAWRENCE       CLOUDY    71  60  68 SW24G35   29.85R THUNDER
6HR MIN TEMP:  69; 6HR MAX TEMP:  81; 6HR PCP:  0.05;

MANHATTAN      CLEAR     66  59  78 S5        29.84R
6HR MIN TEMP:  63; 6HR MAX TEMP:  79; 6HR PCP:  0.51;

MARYSVILLE     CLEAR     66  61  82 CALM      29.86S
OLATHE IND     TSTM      69  61  75 NW10G20   29.90R
6HR MIN TEMP:  69; 6HR MAX TEMP:  80; 6HR PCP:  0.03;

OLATHE EXE     CLOUDY    74  70  87 W10G21    29.92R
6HR MIN TEMP:  73; 6HR MAX TEMP:  78;

SALINA         CLEAR     68  67  96 N5        29.85R
6HR MIN TEMP:  68; 6HR MAX TEMP:  87;

TOPEKA BILLARD CLOUDY    68  59  73 S3        29.83S
6HR MIN TEMP:  67; 6HR MAX TEMP:  80; 6HR PCP:  0.25;

TOPEKA FORBES  CLOUDY    68  60  75 S13       29.83F
6HR MIN TEMP:  66; 6HR MAX TEMP:  81; 6HR PCP:  0.30;

$$




USA.gov is the U.S. government's official web portal to all federal, state and local government web resources and services.